Location: Orin
(42.6533°N, 105.1925°W)
Time: 02:17:57
(UTC-07:00)

Hubble Space Telescope - Visible Passes

Search period start: 01 December 2020 00:00
Search period end: 11 December 2020 00:00
Orbit: 536 x 540 km, 28.5° (Epoch: 30 November)

Date Brightness Start Highest point End Pass type
(mag) Time Alt. Az. Time Alt. Az. Time Alt. Az.
04 Dec 3.4 18:52:26 10° SSW 18:53:15 11° S 18:53:15 11° S visible
05 Dec 3.4 18:41:28 10° SSW 18:42:41 11° S 18:43:07 11° S visible
06 Dec 3.4 18:30:38 10° SSW 18:31:44 11° S 18:32:50 10° SSE visible
07 Dec 3.5 18:19:59 10° SSW 18:20:47 10° S 18:21:36 10° S visible
